Location: Brienzwiler
(46.7508°N, 8.1014°E)
Time: 07:30:51
(UTC+00:00)

Cosmos 2074 Rocket - Pass Details

Date: 05 July 2020
Orbit: 967 x 986 km, 82.9° (Epoch: 06 August)

Event Time Altitude Azimuth Distance (km) Brightness Sun altitude
Exits shadow 21:29:14 19° 174° (S) 2,133 5.2 -15.2°
Maximum altitude 21:33:49 70° 95° (E) 1,030 4.0 -15.6°
Drops below altitude 10° 21:40:00 10° 13° (NNE) 2,722 7.1 -16.1°
Sets 21:42:31 0° 11° (N) 3,672 7.9 -16.3°
